| time (UTC) | temp F | wind direction | speed MPH | gust MPH | rain 1hr in | rain 24hr in | rain mn in | humidity % | barometer mb |
| 20260509224051 | 54 | 92 | 1.0 | 3.0 | 0.00 | 0.00 | 0.00 | 66 | 1025.8 |
| 20260509223553 | 54 | 92 | 1.0 | 3.0 | 0.00 | 0.00 | 0.00 | 66 | 1025.8 |
| 20260509223105 | 54 | 92 | 1.0 | 3.0 | 0.00 | 0.00 | 0.00 | 66 | 1025.7 |
| 20260509222552 | 54 | 92 | 1.0 | 3.0 | 0.00 | 0.00 | 0.00 | 65 | 1025.7 |
| 20260509222051 | 54 | 92 | 1.0 | 3.0 | 0.00 | 0.00 | 0.00 | 65 | 1025.7 |
| 20260509221607 | 55 | 92 | 1.0 | 4.0 | 0.00 | 0.00 | 0.00 | 64 | 1025.5 |
| 20260509221052 | 55 | 92 | 2.0 | 6.0 | 0.00 | 0.00 | 0.00 | 64 | 1025.5 |
| 20260509220551 | 55 | 92 | 2.0 | 6.0 | 0.00 | 0.00 | 0.00 | 64 | 1025.5 |
| 20260509220056 | 55 | 92 | 2.0 | 6.0 | 0.00 | 0.00 | 0.00 | 64 | 1025.3 |
| 20260509215551 | 55 | 92 | 2.0 | 6.0 | 0.00 | 0.00 | 0.00 | 64 | 1025.3 |
| 20260509215053 | 55 | 92 | 2.0 | 6.0 | 0.00 | 0.00 | 0.00 | 64 | 1025.3 |
| 20260509214602 | 55 | 92 | 2.0 | 4.0 | 0.00 | 0.00 | 0.00 | 64 | 1025.4 |
| 20260509214051 | 55 | 92 | 2.0 | 4.0 | 0.00 | 0.00 | 0.00 | 64 | 1025.2 |
| 20260509213551 | 55 | 92 | 1.0 | 7.0 | 0.00 | 0.00 | 0.00 | 63 | 1025.2 |
| 20260509213056 | 55 | 92 | 1.0 | 7.0 | 0.00 | 0.00 | 0.00 | 63 | 1025.2 |
| 20260509212551 | 55 | 92 | 2.0 | 6.0 | 0.00 | 0.00 | 0.00 | 63 | 1025.2 |
| 20260509212053 | 55 | 92 | 2.0 | 6.0 | 0.00 | 0.00 | 0.00 | 63 | 1025.1 |
| 20260509211554 | 55 | 92 | 2.0 | 6.0 | 0.00 | 0.00 | 0.00 | 62 | 1025.0 |
| 20260509211051 | 55 | 92 | 1.0 | 8.0 | 0.00 | 0.00 | 0.00 | 62 | 1025.1 |
| 20260509210551 | 55 | 92 | 2.0 | 8.0 | 0.00 | 0.00 | 0.00 | 61 | 1024.9 |
| 20260509205552 | 56 | 92 | 2.0 | 6.0 | 0.00 | 0.00 | 0.00 | 61 | 1025.1 |
| 20260509205048 | 56 | 92 | 2.0 | 4.0 | 0.00 | 0.00 | 0.00 | 60 | 1025.0 |
| 20260509204552 | 56 | 92 | 1.0 | 6.0 | 0.00 | 0.00 | 0.00 | 60 | 1025.0 |
| 20260509204052 | 56 | 92 | 2.0 | 6.0 | 0.00 | 0.00 | 0.00 | 60 | 1024.9 |
| 20260509203557 | 56 | 92 | 2.0 | 6.0 | 0.00 | 0.00 | 0.00 | 59 | 1024.8 |
| 20260509203055 | 56 | 92 | 2.0 | 6.0 | 0.00 | 0.00 | 0.00 | 59 | 1024.7 |
| 20260509202552 | 56 | 92 | 2.0 | 6.0 | 0.00 | 0.00 | 0.00 | 59 | 1024.5 |
| 20260509202051 | 57 | 94 | 2.0 | 6.0 | 0.00 | 0.00 | 0.00 | 59 | 1024.5 |
| 20260509201555 | 57 | 94 | 2.0 | 7.0 | 0.00 | 0.00 | 0.00 | 59 | 1024.5 |
| 20260509201052 | 57 | 94 | 3.0 | 7.0 | 0.00 | 0.00 | 0.00 | 59 | 1024.5 |
| 20260509200552 | 57 | 101 | 2.0 | 7.0 | 0.00 | 0.00 | 0.00 | 59 | 1024.5 |
| 20260509200106 | 56 | 101 | 2.0 | 7.0 | 0.00 | 0.00 | 0.00 | 59 | 1024.5 |
| 20260509195556 | 56 | 101 | 2.0 | 7.0 | 0.00 | 0.00 | 0.00 | 59 | 1024.4 |
| 20260509195052 | 56 | 101 | 2.0 | 7.0 | 0.00 | 0.00 | 0.00 | 59 | 1024.4 |
| 20260509194557 | 56 | 103 | 2.0 | 7.0 | 0.00 | 0.00 | 0.00 | 59 | 1024.4 |
| 20260509194053 | 56 | 103 | 2.0 | 7.0 | 0.00 | 0.00 | 0.00 | 59 | 1024.4 |
| 20260509193551 | 56 | 103 | 3.0 | 6.0 | 0.00 | 0.00 | 0.00 | 58 | 1024.3 |
| 20260509193103 | 57 | 103 | 2.0 | 6.0 | 0.00 | 0.00 | 0.00 | 58 | 1024.4 |
| 20260509192553 | 57 | 103 | 2.0 | 6.0 | 0.00 | 0.00 | 0.00 | 58 | 1024.4 |
| 20260509192055 | 57 | 103 | 1.0 | 6.0 | 0.00 | 0.00 | 0.00 | 57 | 1024.4 |
| 20260509191556 | 57 | 103 | 2.0 | 6.0 | 0.00 | 0.00 | 0.00 | 57 | 1024.4 |
| 20260509191052 | 57 | 103 | 2.0 | 6.0 | 0.00 | 0.00 | 0.00 | 57 | 1024.3 |
| 20260509190552 | 57 | 103 | 2.0 | 6.0 | 0.00 | 0.00 | 0.00 | 56 | 1024.2 |
| 20260509190057 | 57 | 103 | 2.0 | 6.0 | 0.00 | 0.00 | 0.00 | 56 | 1024.2 |
| 20260509185554 | 57 | 103 | 2.0 | 6.0 | 0.00 | 0.00 | 0.00 | 56 | 1024.3 |
| 20260509185057 | 57 | 103 | 1.0 | 4.0 | 0.00 | 0.00 | 0.00 | 56 | 1024.3 |
| 20260509184557 | 58 | 103 | 1.0 | 4.0 | 0.00 | 0.00 | 0.00 | 56 | 1024.3 |
| 20260509184053 | 58 | 103 | 2.0 | 4.0 | 0.00 | 0.00 | 0.00 | 56 | 1024.3 |
| 20260509183553 | 58 | 103 | 2.0 | 4.0 | 0.00 | 0.00 | 0.00 | 56 | 1024.3 |
| 20260509183104 | 58 | 103 | 2.0 | 4.0 | 0.00 | 0.00 | 0.00 | 55 | 1024.3 |
| 20260509182553 | 58 | 103 | 2.0 | 6.0 | 0.00 | 0.00 | 0.00 | 55 | 1024.3 |
| 20260509182053 | 58 | 103 | 2.0 | 7.0 | 0.00 | 0.00 | 0.00 | 56 | 1024.3 |
| 20260509181553 | 57 | 103 | 3.0 | 7.0 | 0.00 | 0.00 | 0.00 | 56 | 1024.2 |
| 20260509181053 | 57 | 104 | 2.0 | 6.0 | 0.00 | 0.00 | 0.00 | 56 | 1024.2 |
| 20260509180555 | 57 | 104 | 2.0 | 6.0 | 0.00 | 0.00 | 0.00 | 56 | 1024.3 |
| 20260509180056 | 57 | 104 | 2.0 | 6.0 | 0.00 | 0.00 | 0.00 | 56 | 1024.3 |
| 20260509175553 | 57 | 104 | 2.0 | 4.0 | 0.00 | 0.00 | 0.00 | 56 | 1024.2 |
| 20260509175058 | 57 | 104 | 2.0 | 4.0 | 0.00 | 0.00 | 0.00 | 56 | 1024.5 |
| 20260509174553 | 57 | 105 | 2.0 | 4.0 | 0.00 | 0.00 | 0.00 | 56 | 1024.5 |
| 20260509174053 | 57 | 105 | 2.0 | 6.0 | 0.00 | 0.00 | 0.00 | 56 | 1024.5 |
| 20260509173553 | 57 | 105 | 2.0 | 6.0 | 0.00 | 0.00 | 0.00 | 57 | 1024.5 |
| 20260509173107 | 57 | 105 | 1.0 | 3.0 | 0.00 | 0.00 | 0.00 | 57 | 1024.5 |
| 20260509172553 | 57 | 105 | 1.0 | 3.0 | 0.00 | 0.00 | 0.00 | 57 | 1024.5 |
| 20260509172053 | 57 | 105 | 1.0 | 3.0 | 0.00 | 0.00 | 0.00 | 56 | 1024.5 |
| 20260509171554 | 57 | 105 | 1.0 | 3.0 | 0.00 | 0.00 | 0.00 | 56 | 1024.6 |
| 20260509171053 | 57 | 105 | 1.0 | 3.0 | 0.00 | 0.00 | 0.00 | 55 | 1024.5 |
| 20260509170555 | 57 | 105 | 1.0 | 3.0 | 0.00 | 0.00 | 0.00 | 55 | 1024.6 |
| 20260509170052 | 57 | 105 | 1.0 | 4.0 | 0.00 | 0.00 | 0.00 | 54 | 1024.6 |
| 20260509165554 | 57 | 105 | 1.0 | 4.0 | 0.00 | 0.00 | 0.00 | 54 | 1024.6 |
| 20260509165053 | 57 | 105 | 1.0 | 3.0 | 0.00 | 0.00 | 0.00 | 54 | 1024.6 |
| 20260509164555 | 58 | 105 | 1.0 | 3.0 | 0.00 | 0.00 | 0.00 | 53 | 1024.5 |
| 20260509164053 | 58 | 0 | 1.0 | 4.0 | 0.00 | 0.00 | 0.00 | 53 | 1024.6 |
| 20260509163552 | 58 | 105 | 1.0 | 4.0 | 0.00 | 0.00 | 0.00 | 53 | 1024.5 |
| 20260509163101 | 58 | 105 | 2.0 | 4.0 | 0.00 | 0.00 | 0.00 | 53 | 1024.6 |
| 20260509162554 | 58 | 105 | 2.0 | 4.0 | 0.00 | 0.00 | 0.00 | 53 | 1024.7 |
| 20260509162054 | 58 | 105 | 1.0 | 4.0 | 0.00 | 0.00 | 0.00 | 53 | 1024.6 |
| 20260509161554 | 58 | 105 | 2.0 | 4.0 | 0.00 | 0.00 | 0.00 | 53 | 1024.6 |
| 20260509161052 | 58 | 105 | 2.0 | 4.0 | 0.00 | 0.00 | 0.00 | 53 | 1024.7 |
| 20260509160553 | 58 | 105 | 2.0 | 4.0 | 0.00 | 0.00 | 0.00 | 53 | 1024.8 |
| 20260509160058 | 58 | 105 | 1.0 | 4.0 | 0.00 | 0.00 | 0.00 | 54 | 1024.7 |
| 20260509155553 | 58 | 105 | 2.0 | 4.0 | 0.00 | 0.00 | 0.00 | 54 | 1024.8 |
| 20260509155053 | 58 | 105 | 1.0 | 3.0 | 0.00 | 0.00 | 0.00 | 54 | 1024.8 |
| 20260509154606 | 58 | 105 | 1.0 | 3.0 | 0.00 | 0.00 | 0.00 | 54 | 1024.9 |
| 20260509154053 | 57 | 105 | 1.0 | 3.0 | 0.00 | 0.00 | 0.00 | 54 | 1025.0 |
| 20260509153553 | 57 | 105 | 1.0 | 3.0 | 0.00 | 0.00 | 0.00 | 55 | 1025.0 |
| 20260509153059 | 57 | 105 | 1.0 | 2.0 | 0.00 | 0.00 | 0.00 | 56 | 1024.9 |
| 20260509152551 | 57 | 105 | 1.0 | 2.0 | 0.00 | 0.00 | 0.00 | 56 | 1024.9 |
| 20260509152053 | 57 | 0 | 0.0 | 2.0 | 0.00 | 0.00 | 0.00 | 57 | 1025.1 |
| 20260509151600 | 57 | 0 | 0.0 | 2.0 | 0.00 | 0.00 | 0.00 | 57 | 1025.0 |
| 20260509151052 | 57 | 0 | 0.0 | 2.0 | 0.00 | 0.00 | 0.00 | 57 | 1025.0 |
| 20260509150553 | 57 | 105 | 0.0 | 2.0 | 0.00 | 0.00 | 0.00 | 57 | 1025.1 |
| 20260509145553 | 57 | 0 | 0.0 | 1.0 | 0.00 | 0.00 | 0.00 | 56 | 1025.1 |
| 20260509145056 | 57 | 0 | 0.0 | 0.0 | 0.00 | 0.00 | 0.00 | 56 | 1025.3 |
| 20260509144610 | 58 | 0 | 0.0 | 0.0 | 0.00 | 0.00 | 0.00 | 55 | 1025.2 |
| 20260509144053 | 58 | 0 | 0.0 | 0.0 | 0.00 | 0.00 | 0.00 | 55 | 1025.3 |
| 20260509143553 | 58 | 0 | 0.0 | 0.0 | 0.00 | 0.00 | 0.00 | 54 | 1025.2 |
| 20260509143100 | 58 | 0 | 0.0 | 0.0 | 0.00 | 0.00 | 0.00 | 52 | 1025.4 |
| 20260509142553 | 58 | 0 | 0.0 | 2.0 | 0.00 | 0.00 | 0.00 | 52 | 1025.4 |
| 20260509142053 | 58 | 0 | 0.0 | 2.0 | 0.00 | 0.00 | 0.00 | 53 | 1025.4 |
| 20260509141559 | 58 | 105 | 0.0 | 2.0 | 0.00 | 0.00 | 0.00 | 52 | 1025.2 |
| 20260509141054 | 59 | 0 | 0.0 | 0.0 | 0.00 | 0.00 | 0.00 | 53 | 1025.3 |
| 20260509140552 | 59 | 0 | 0.0 | 0.0 | 0.00 | 0.00 | 0.00 | 52 | 1025.3 |
| 20260509140105 | 59 | 0 | 0.0 | 0.0 | 0.00 | 0.00 | 0.00 | 51 | 1025.3 |
| 20260509135554 | 60 | 0 | 0.0 | 0.0 | 0.00 | 0.00 | 0.00 | 51 | 1025.3 |
| 20260509135054 | 60 | 0 | 0.0 | 0.0 | 0.00 | 0.00 | 0.00 | 50 | 1025.3 |
| 20260509134556 | 60 | 0 | 0.0 | 0.0 | 0.00 | 0.00 | 0.00 | 49 | 1025.4 |
| 20260509134051 | 60 | 0 | 0.0 | 0.0 | 0.00 | 0.00 | 0.00 | 49 | 1025.2 |
| 20260509133555 | 61 | 0 | 0.0 | 2.0 | 0.00 | 0.00 | 0.00 | 48 | 1025.2 |
| 20260509133057 | 61 | 0 | 0.0 | 2.0 | 0.00 | 0.00 | 0.00 | 47 | 1025.2 |
| 20260509132554 | 61 | 105 | 1.0 | 2.0 | 0.00 | 0.00 | 0.00 | 46 | 1025.2 |
| 20260509132053 | 61 | 105 | 0.0 | 2.0 | 0.00 | 0.00 | 0.00 | 45 | 1025.2 |
| 20260509131558 | 62 | 105 | 0.0 | 2.0 | 0.00 | 0.00 | 0.00 | 45 | 1025.2 |
| 20260509131053 | 62 | 105 | 0.0 | 3.0 | 0.00 | 0.00 | 0.00 | 45 | 1025.2 |
| 20260509130553 | 62 | 0 | 1.0 | 3.0 | 0.00 | 0.00 | 0.00 | 45 | 1025.1 |
| 20260509130056 | 62 | 105 | 1.0 | 3.0 | 0.00 | 0.00 | 0.00 | 45 | 1024.9 |
| 20260509125552 | 62 | 105 | 0.0 | 3.0 | 0.00 | 0.00 | 0.00 | 44 | 1024.9 |
| 20260509125053 | 63 | 105 | 1.0 | 3.0 | 0.00 | 0.00 | 0.00 | 44 | 1024.9 |
| 20260509124557 | 63 | 105 | 1.0 | 3.0 | 0.00 | 0.00 | 0.00 | 44 | 1024.9 |
| 20260509124053 | 63 | 105 | 2.0 | 3.0 | 0.00 | 0.00 | 0.00 | 44 | 1024.9 |
| 20260509123555 | 63 | 105 | 1.0 | 2.0 | 0.00 | 0.00 | 0.00 | 43 | 1024.9 |
| 20260509123118 | 63 | 105 | 1.0 | 2.0 | 0.00 | 0.00 | 0.00 | 43 | 1024.8 |
| 20260509122553 | 63 | 105 | 0.0 | 2.0 | 0.00 | 0.00 | 0.00 | 43 | 1024.8 |
| 20260509122053 | 64 | 0 | 0.0 | 2.0 | 0.00 | 0.00 | 0.00 | 42 | 1024.9 |
| 20260509121600 | 64 | 105 | 1.0 | 2.0 | 0.00 | 0.00 | 0.00 | 42 | 1024.7 |
| 20260509121053 | 64 | 105 | 1.0 | 3.0 | 0.00 | 0.00 | 0.00 | 42 | 1024.7 |
| 20260509120552 | 64 | 105 | 1.0 | 4.0 | 0.00 | 0.00 | 0.00 | 42 | 1024.6 |
| 20260509120056 | 64 | 105 | 2.0 | 4.0 | 0.00 | 0.00 | 0.00 | 42 | 1024.6 |
| 20260509115553 | 64 | 105 | 2.0 | 6.0 | 0.00 | 0.00 | 0.00 | 41 | 1024.6 |
| 20260509115053 | 65 | 105 | 2.0 | 6.0 | 0.00 | 0.00 | 0.00 | 41 | 1024.5 |
| 20260509114600 | 65 | 105 | 3.0 | 7.0 | 0.00 | 0.00 | 0.00 | 41 | 1024.5 |
| 20260509114054 | 65 | 105 | 3.0 | 7.0 | 0.00 | 0.00 | 0.00 | 40 | 1024.5 |
| 20260509113556 | 65 | 105 | 2.0 | 6.0 | 0.00 | 0.00 | 0.00 | 40 | 1024.4 |
| 20260509113055 | 65 | 105 | 2.0 | 6.0 | 0.00 | 0.00 | 0.00 | 40 | 1024.5 |
| 20260509112552 | 66 | 105 | 3.0 | 6.0 | 0.00 | 0.00 | 0.00 | 39 | 1024.4 |
| 20260509112053 | 66 | 105 | 3.0 | 6.0 | 0.00 | 0.00 | 0.00 | 38 | 1024.5 |
| 20260509111559 | 66 | 105 | 2.0 | 6.0 | 0.00 | 0.00 | 0.00 | 38 | 1024.4 |
| 20260509111053 | 66 | 105 | 3.0 | 6.0 | 0.00 | 0.00 | 0.00 | 38 | 1024.4 |
| 20260509110553 | 66 | 106 | 2.0 | 7.0 | 0.00 | 0.00 | 0.00 | 38 | 1024.4 |
| 20260509110053 | 67 | 106 | 2.0 | 7.0 | 0.00 | 0.00 | 0.00 | 37 | 1024.5 |
| 20260509105552 | 67 | 106 | 2.0 | 7.0 | 0.00 | 0.00 | 0.00 | 37 | 1024.4 |
| 20260509105054 | 67 | 106 | 2.0 | 4.0 | 0.00 | 0.00 | 0.00 | 37 | 1024.4 |
| 20260509104555 | 67 | 106 | 2.0 | 4.0 | 0.00 | 0.00 | 0.00 | 37 | 1024.4 |
| 20260509104053 | 68 | 106 | 2.0 | 4.0 | 0.00 | 0.00 | 0.00 | 36 | 1024.4 |
| 20260509103553 | 68 | 106 | 2.0 | 7.0 | 0.00 | 0.00 | 0.00 | 36 | 1024.3 |
| 20260509103100 | 68 | 106 | 2.0 | 7.0 | 0.00 | 0.00 | 0.00 | 36 | 1024.3 |
| 20260509102553 | 68 | 106 | 2.0 | 7.0 | 0.00 | 0.00 | 0.00 | 35 | 1024.4 |
| 20260509102053 | 68 | 106 | 2.0 | 6.0 | 0.00 | 0.00 | 0.00 | 35 | 1024.4 |
| 20260509101556 | 69 | 106 | 3.0 | 6.0 | 0.00 | 0.00 | 0.00 | 35 | 1024.4 |
| 20260509101053 | 69 | 106 | 2.0 | 6.0 | 0.00 | 0.00 | 0.00 | 35 | 1024.4 |
| 20260509100553 | 69 | 106 | 2.0 | 6.0 | 0.00 | 0.00 | 0.00 | 35 | 1024.3 |
| 20260509100058 | 69 | 106 | 2.0 | 6.0 | 0.00 | 0.00 | 0.00 | 35 | 1024.3 |
| 20260509095553 | 69 | 106 | 2.0 | 6.0 | 0.00 | 0.00 | 0.00 | 35 | 1024.3 |
| 20260509095054 | 70 | 106 | 2.0 | 6.0 | 0.00 | 0.00 | 0.00 | 35 | 1024.2 |
| 20260509094554 | 70 | 106 | 2.0 | 6.0 | 0.00 | 0.00 | 0.00 | 34 | 1024.2 |
| 20260509094054 | 70 | 106 | 2.0 | 4.0 | 0.00 | 0.00 | 0.00 | 34 | 1024.1 |
| 20260509093553 | 70 | 106 | 2.0 | 4.0 | 0.00 | 0.00 | 0.00 | 34 | 1024.2 |
| 20260509093053 | 71 | 106 | 2.0 | 4.0 | 0.00 | 0.00 | 0.00 | 34 | 1024.0 |
| 20260509092557 | 71 | 106 | 2.0 | 6.0 | 0.00 | 0.00 | 0.00 | 34 | 1024.2 |
| 20260509092054 | 71 | 106 | 2.0 | 7.0 | 0.00 | 0.00 | 0.00 | 34 | 1024.1 |
| 20260509091554 | 72 | 106 | 2.0 | 7.0 | 0.00 | 0.00 | 0.00 | 33 | 1024.1 |
| 20260509091056 | 72 | 106 | 2.0 | 7.0 | 0.00 | 0.00 | 0.00 | 33 | 1024.0 |
| 20260509090553 | 72 | 105 | 3.0 | 8.0 | 0.00 | 0.00 | 0.00 | 33 | 1024.1 |
| 20260509090058 | 72 | 98 | 3.0 | 8.0 | 0.00 | 0.00 | 0.00 | 32 | 1024.0 |
| 20260509085553 | 72 | 105 | 4.0 | 8.0 | 0.00 | 0.00 | 0.00 | 32 | 1024.0 |
| 20260509085053 | 72 | 103 | 3.0 | 7.0 | 0.00 | 0.00 | 0.00 | 33 | 1024.0 |
| 20260509084553 | 73 | 103 | 3.0 | 10.0 | 0.00 | 0.00 | 0.00 | 33 | 1024.0 |
| 20260509084055 | 73 | 102 | 3.0 | 10.0 | 0.00 | 0.00 | 0.00 | 32 | 1024.0 |
| 20260509083553 | 73 | 107 | 2.0 | 8.0 | 0.00 | 0.00 | 0.00 | 32 | 1024.0 |
| 20260509083059 | 73 | 103 | 4.0 | 7.0 | 0.00 | 0.00 | 0.00 | 33 | 1023.9 |
| 20260509082552 | 73 | 101 | 3.0 | 7.0 | 0.00 | 0.00 | 0.00 | 33 | 1023.9 |
| 20260509082053 | 73 | 56 | 3.0 | 8.0 | 0.00 | 0.00 | 0.00 | 33 | 1024.0 |
| 20260509081557 | 73 | 58 | 2.0 | 8.0 | 0.00 | 0.00 | 0.00 | 33 | 1023.9 |
| 20260509081055 | 73 | 73 | 3.0 | 8.0 | 0.00 | 0.00 | 0.00 | 33 | 1023.9 |
| 20260509080554 | 73 | 26 | 3.0 | 10.0 | 0.00 | 0.00 | 0.00 | 33 | 1023.8 |
| 20260509080059 | 73 | 105 | 4.0 | 10.0 | 0.00 | 0.00 | 0.00 | 33 | 1024.0 |
| 20260509075554 | 73 | 104 | 4.0 | 9.0 | 0.00 | 0.00 | 0.00 | 34 | 1024.0 |
| 20260509075054 | 73 | 104 | 3.0 | 7.0 | 0.00 | 0.00 | 0.00 | 34 | 1023.9 |
| 20260509074605 | 73 | 60 | 2.0 | 7.0 | 0.00 | 0.00 | 0.00 | 34 | 1023.8 |
| 20260509074053 | 73 | 49 | 2.0 | 10.0 | 0.00 | 0.00 | 0.00 | 34 | 1023.9 |
| 20260509073555 | 73 | 98 | 3.0 | 10.0 | 0.00 | 0.00 | 0.00 | 35 | 1023.8 |
| 20260509073053 | 73 | 35 | 5.0 | 10.0 | 0.00 | 0.00 | 0.00 | 34 | 1023.8 |
| 20260509072556 | 73 | 115 | 4.0 | 10.0 | 0.00 | 0.00 | 0.00 | 34 | 1023.7 |
| 20260509072052 | 73 | 77 | 3.0 | 7.0 | 0.00 | 0.00 | 0.00 | 34 | 1023.8 |
| 20260509071607 | 73 | 74 | 3.0 | 8.0 | 0.00 | 0.00 | 0.00 | 34 | 1023.5 |
| 20260509071050 | 73 | 105 | 3.0 | 8.0 | 0.00 | 0.00 | 0.00 | 34 | 1023.6 |
| 20260509070554 | 73 | 32 | 4.0 | 7.0 | 0.00 | 0.00 | 0.00 | 34 | 1023.6 |
| 20260509070054 | 73 | 23 | 3.0 | 7.0 | 0.00 | 0.00 | 0.00 | 34 | 1023.5 |
| 20260509065553 | 73 | 82 | 4.0 | 17.0 | 0.00 | 0.00 | 0.00 | 34 | 1023.5 |
| 20260509065054 | 73 | 68 | 5.0 | 17.0 | 0.00 | 0.00 | 0.00 | 34 | 1023.4 |
| 20260509064558 | 73 | 89 | 5.0 | 17.0 | 0.00 | 0.00 | 0.00 | 33 | 1023.4 |
| 20260509064054 | 73 | 53 | 4.0 | 13.0 | 0.00 | 0.00 | 0.00 | 34 | 1023.4 |
| 20260509063553 | 73 | 81 | 4.0 | 13.0 | 0.00 | 0.00 | 0.00 | 34 | 1023.4 |
| 20260509063055 | 73 | 44 | 3.0 | 13.0 | 0.00 | 0.00 | 0.00 | 34 | 1023.4 |
| 20260509062554 | 73 | 122 | 4.0 | 9.0 | 0.00 | 0.00 | 0.00 | 34 | 1023.4 |
| 20260509062053 | 73 | 142 | 3.0 | 14.0 | 0.00 | 0.00 | 0.00 | 34 | 1023.4 |
| 20260509061601 | 73 | 70 | 7.0 | 14.0 | 0.00 | 0.00 | 0.00 | 34 | 1023.6 |
| 20260509061053 | 73 | 96 | 3.0 | 10.0 | 0.00 | 0.00 | 0.00 | 33 | 1023.5 |
| 20260509060553 | 73 | 78 | 4.0 | 10.0 | 0.00 | 0.00 | 0.00 | 33 | 1023.4 |
| 20260509055553 | 73 | 53 | 3.0 | 10.0 | 0.00 | 0.00 | 0.00 | 34 | 1023.4 |
| 20260509055052 | 73 | 81 | 5.0 | 10.0 | 0.00 | 0.00 | 0.00 | 35 | 1023.6 |
| 20260509054609 | 73 | 49 | 4.0 | 10.0 | 0.00 | 0.00 | 0.00 | 35 | 1023.6 |
| 20260509054052 | 73 | 56 | 4.0 | 11.0 | 0.00 | 0.00 | 0.00 | 34 | 1023.7 |
| 20260509053552 | 72 | 109 | 4.0 | 12.0 | 0.00 | 0.00 | 0.00 | 36 | 1023.7 |
| 20260509053101 | 72 | 89 | 3.0 | 12.0 | 0.00 | 0.00 | 0.00 | 37 | 1023.8 |
| 20260509052554 | 72 | 76 | 4.0 | 9.0 | 0.00 | 0.00 | 0.00 | 37 | 1023.9 |
| 20260509052056 | 72 | 57 | 5.0 | 10.0 | 0.00 | 0.00 | 0.00 | 37 | 1023.9 |
| 20260509051603 | 71 | 40 | 5.0 | 10.0 | 0.00 | 0.00 | 0.00 | 37 | 1023.9 |
| 20260509051055 | 71 | 102 | 5.0 | 10.0 | 0.00 | 0.00 | 0.00 | 38 | 1024.0 |
| 20260509050553 | 71 | 352 | 5.0 | 12.0 | 0.00 | 0.00 | 0.00 | 37 | 1024.1 |
| 20260509050055 | 71 | 121 | 5.0 | 12.0 | 0.00 | 0.00 | 0.00 | 38 | 1024.2 |
| 20260509045554 | 71 | 40 | 4.0 | 11.0 | 0.00 | 0.00 | 0.00 | 38 | 1024.3 |
| 20260509045053 | 71 | 63 | 5.0 | 11.0 | 0.00 | 0.00 | 0.00 | 39 | 1024.4 |
| 20260509044553 | 71 | 31 | 4.0 | 10.0 | 0.00 | 0.00 | 0.00 | 39 | 1024.5 |
| 20260509044053 | 70 | 78 | 5.0 | 10.0 | 0.00 | 0.00 | 0.00 | 39 | 1024.6 |
| 20260509043553 | 70 | 66 | 5.0 | 11.0 | 0.00 | 0.00 | 0.00 | 39 | 1024.7 |
| 20260509043059 | 70 | 59 | 3.0 | 11.0 | 0.00 | 0.00 | 0.00 | 40 | 1024.8 |
| 20260509042554 | 70 | 40 | 6.0 | 12.0 | 0.00 | 0.00 | 0.00 | 39 | 1024.8 |
| 20260509042052 | 70 | 67 | 5.0 | 12.0 | 0.00 | 0.00 | 0.00 | 40 | 1025.0 |
| 20260509041551 | 70 | 107 | 5.0 | 10.0 | 0.00 | 0.00 | 0.00 | 40 | 1025.1 |
| 20260509041054 | 69 | 65 | 4.0 | 10.0 | 0.00 | 0.00 | 0.00 | 40 | 1025.3 |
| 20260509040552 | 69 | 24 | 5.0 | 12.0 | 0.00 | 0.00 | 0.00 | 40 | 1025.5 |
| 20260509040054 | 69 | 72 | 6.0 | 12.0 | 0.00 | 0.00 | 0.00 | 41 | 1025.6 |
| 20260509035553 | 69 | 82 | 5.0 | 11.0 | 0.00 | 0.00 | 0.00 | 41 | 1025.8 |
| 20260509035054 | 69 | 91 | 6.0 | 11.0 | 0.00 | 0.00 | 0.00 | 41 | 1025.7 |
| 20260509034553 | 69 | 104 | 4.0 | 11.0 | 0.00 | 0.00 | 0.00 | 42 | 1025.8 |
| 20260509034053 | 68 | 99 | 6.0 | 13.0 | 0.00 | 0.00 | 0.00 | 42 | 1026.0 |
| 20260509033553 | 68 | 55 | 5.0 | 13.0 | 0.00 | 0.00 | 0.00 | 43 | 1026.0 |
| 20260509033054 | 68 | 51 | 7.0 | 13.0 | 0.00 | 0.00 | 0.00 | 43 | 1026.1 |
| 20260509032553 | 67 | 65 | 7.0 | 12.0 | 0.00 | 0.00 | 0.00 | 43 | 1026.2 |
| 20260509032055 | 67 | 20 | 7.0 | 12.0 | 0.00 | 0.00 | 0.00 | 43 | 1026.2 |
| 20260509031617 | 67 | 111 | 6.0 | 12.0 | 0.00 | 0.00 | 0.00 | 44 | 1026.3 |
| 20260509031053 | 67 | 40 | 7.0 | 12.0 | 0.00 | 0.00 | 0.00 | 43 | 1026.6 |
| 20260509030553 | 67 | 73 | 4.0 | 11.0 | 0.00 | 0.00 | 0.00 | 44 | 1026.7 |
| 20260509030054 | 67 | 345 | 6.0 | 13.0 | 0.00 | 0.00 | 0.00 | 44 | 1026.8 |
| 20260509025555 | 67 | 360 | 6.0 | 13.0 | 0.00 | 0.00 | 0.00 | 44 | 1026.8 |
| 20260509025052 | 66 | 63 | 6.0 | 13.0 | 0.00 | 0.00 | 0.00 | 45 | 1026.8 |
| 20260509024554 | 66 | 49 | 7.0 | 13.0 | 0.00 | 0.00 | 0.00 | 45 | 1027.1 |
| 20260509024054 | 66 | 360 | 6.0 | 13.0 | 0.00 | 0.00 | 0.00 | 45 | 1026.9 |
| 20260509023554 | 66 | 10 | 6.0 | 13.0 | 0.00 | 0.00 | 0.00 | 45 | 1027.0 |
| 20260509023057 | 65 | 360 | 7.0 | 13.0 | 0.00 | 0.00 | 0.00 | 46 | 1027.2 |
| 20260509022553 | 65 | 360 | 7.0 | 13.0 | 0.00 | 0.00 | 0.00 | 46 | 1027.2 |
| 20260509022052 | 66 | 360 | 5.0 | 13.0 | 0.00 | 0.00 | 0.00 | 46 | 1027.3 |
| 20260509021554 | 66 | 360 | 5.0 | 15.0 | 0.00 | 0.00 | 0.00 | 47 | 1027.3 |
| 20260509021053 | 65 | 75 | 5.0 | 15.0 | 0.00 | 0.00 | 0.00 | 48 | 1027.4 |
| 20260509020555 | 65 | 64 | 4.0 | 13.0 | 0.00 | 0.00 | 0.00 | 48 | 1027.3 |
| 20260509020054 | 65 | 34 | 6.0 | 13.0 | 0.00 | 0.00 | 0.00 | 48 | 1027.4 |
| 20260509015553 | 64 | 80 | 5.0 | 14.0 | 0.00 | 0.00 | 0.00 | 49 | 1027.2 |
| 20260509015053 | 64 | 36 | 6.0 | 14.0 | 0.00 | 0.00 | 0.00 | 49 | 1027.3 |
| 20260509014553 | 64 | 76 | 6.0 | 13.0 | 0.00 | 0.00 | 0.00 | 48 | 1027.5 |
| 20260509014052 | 64 | 38 | 6.0 | 13.0 | 0.00 | 0.00 | 0.00 | 50 | 1027.6 |
| 20260509013553 | 63 | 74 | 7.0 | 13.0 | 0.00 | 0.00 | 0.00 | 50 | 1027.7 |
| 20260509013102 | 63 | 59 | 5.0 | 10.0 | 0.00 | 0.00 | 0.00 | 51 | 1027.7 |
| 20260509012552 | 63 | 64 | 5.0 | 12.0 | 0.00 | 0.00 | 0.00 | 51 | 1027.7 |
| 20260509012052 | 62 | 97 | 7.0 | 12.0 | 0.00 | 0.00 | 0.00 | 51 | 1027.8 |
| 20260509011556 | 62 | 61 | 6.0 | 12.0 | 0.00 | 0.00 | 0.00 | 52 | 1027.8 |
| 20260509011053 | 62 | 47 | 6.0 | 12.0 | 0.00 | 0.00 | 0.00 | 52 | 1027.8 |
| 20260509010553 | 62 | 47 | 6.0 | 12.0 | 0.00 | 0.00 | 0.00 | 52 | 1027.9 |
| 20260509010055 | 62 | 15 | 6.0 | 13.0 | 0.00 | 0.00 | 0.00 | 52 | 1027.8 |
| 20260509005553 | 62 | 46 | 5.0 | 13.0 | 0.00 | 0.00 | 0.00 | 53 | 1027.8 |
| 20260509005053 | 61 | 33 | 6.0 | 13.0 | 0.00 | 0.00 | 0.00 | 53 | 1027.9 |
| 20260509004555 | 61 | 70 | 5.0 | 10.0 | 0.00 | 0.00 | 0.00 | 53 | 1028.0 |
| 20260509004055 | 61 | 33 | 5.0 | 10.0 | 0.00 | 0.00 | 0.00 | 54 | 1027.9 |
| 20260509003553 | 61 | 38 | 4.0 | 13.0 | 0.00 | 0.00 | 0.00 | 54 | 1027.8 |
| 20260509003056 | 60 | 68 | 6.0 | 13.0 | 0.00 | 0.00 | 0.00 | 54 | 1027.9 |
| 20260509002557 | 60 | 35 | 7.0 | 13.0 | 0.00 | 0.00 | 0.00 | 54 | 1027.9 |
| 20260509002053 | 60 | 352 | 4.0 | 13.0 | 0.00 | 0.00 | 0.00 | 55 | 1027.8 |
| 20260509001554 | 60 | 34 | 4.0 | 13.0 | 0.00 | 0.00 | 0.00 | 55 | 1027.8 |
| 20260509001053 | 60 | 43 | 6.0 | 13.0 | 0.00 | 0.00 | 0.00 | 56 | 1027.7 |
| 20260509000552 | 59 | 42 | 5.0 | 9.0 | 0.00 | 0.00 | 0.00 | 56 | 1027.7 |
| 20260509000109 | 59 | 69 | 4.0 | 11.0 | 0.00 | 0.00 | 0.00 | 56 | 1027.6 |
| 20260508235553 | 59 | 36 | 5.0 | 11.0 | 0.00 | 0.00 | 0.00 | 56 | 1027.7 |
| 20260508235050 | 59 | 98 | 4.0 | 9.0 | 0.00 | 0.00 | 0.00 | 57 | 1027.6 |
| 20260508234608 | 59 | 38 | 4.0 | 8.0 | 0.00 | 0.00 | 0.00 | 57 | 1027.6 |
| 20260508234053 | 58 | 71 | 3.0 | 9.0 | 0.00 | 0.00 | 0.00 | 57 | 1027.6 |
| 20260508233553 | 58 | 51 | 5.0 | 9.0 | 0.00 | 0.00 | 0.00 | 57 | 1027.5 |
| 20260508233058 | 58 | 63 | 4.0 | 8.0 | 0.00 | 0.00 | 0.00 | 58 | 1027.4 |
| 20260508232554 | 58 | 61 | 3.0 | 8.0 | 0.00 | 0.00 | 0.00 | 58 | 1027.4 |
| 20260508232053 | 58 | 60 | 4.0 | 7.0 | 0.00 | 0.00 | 0.00 | 57 | 1027.5 |
| 20260508231552 | 58 | 55 | 4.0 | 7.0 | 0.00 | 0.00 | 0.00 | 58 | 1027.4 |
| 20260508231052 | 58 | 56 | 4.0 | 9.0 | 0.00 | 0.00 | 0.00 | 58 | 1027.3 |
| 20260508230552 | 58 | 44 | 4.0 | 9.0 | 0.00 | 0.00 | 0.00 | 58 | 1027.4 |
| 20260508230101 | 58 | 50 | 4.0 | 9.0 | 0.00 | 0.00 | 0.00 | 58 | 1027.3 |
| 20260508225553 | 58 | 67 | 4.0 | 8.0 | 0.00 | 0.00 | 0.00 | 57 | 1027.3 |
| 20260508225053 | 58 | 34 | 3.0 | 9.0 | 0.00 | 0.00 | 0.00 | 57 | 1027.4 |
| 20260508224557 | 58 | 46 | 3.0 | 9.0 | 0.00 | 0.00 | 0.00 | 57 | 1027.2 |